Location: Rancho Del Sol Observatory
(38.7214°N, 120.6350°W)
Time: 04:18:39
(UTC-07:00)

Daily predictions for brighter satellites

Satellite Brightness Start Highest point End
(mag) Time Altitude Azimuth Time Altitude Azimuth Time Altitude Azimuth
Cosmos 1455 4.2 00:00:41 10° NW 00:03:16 21° W 00:03:16 21° W
Cosmos 2333 Rocket 3.0 00:01:25 10° NW 00:06:42 38° WSW 00:07:14 38° WSW
Cosmos 389 Rocket 4.2 00:04:30 10° N 00:06:34 31° N 00:06:34 31° N
Cosmos 1269 Rocket 3.9 00:03:35 10° NNW 00:08:54 76° WSW 00:08:56 76° WSW
SL-16 R/B 2.0 00:03:30 10° NNW 00:09:13 83° ENE 00:09:36 77° SE
GEOS 3 Rocket 4.1 00:08:44 47° E 00:09:37 53° NE 00:14:39 10° NNW
Cosmos 1900 4.3 00:07:42 10° NNW 00:12:19 77° NNW 00:12:19 77° NNW
CZ-4B R/B 3.6 00:18:05 25° NNE 00:18:05 25° NNE 00:19:50 10° N
NOSS 2-3 (E) 3.9 00:18:08 79° NE 00:18:08 79° NE 00:23:21 10° NNE
Cosmos 2297 Rocket 3.3 00:18:30 27° WSW 00:20:53 39° WNW 00:26:12 10° N
Meteor 2-10 Rocket 4.3 00:16:10 10° N 00:21:32 45° ENE 00:21:53 44° E
TSX-5 4.5 00:22:40 83° E 00:22:40 83° E 00:29:01 10° NNE
CZ-4C R/B 4.3 00:16:37 10° NNW 00:22:40 30° NE 00:28:37 12° E
CZ-2C R/B 3.9 00:24:03 10° NE 00:27:44 27° E 00:27:44 27° E
Cosmos 2219 Rocket 4.0 00:26:02 10° WNW 00:29:34 17° W 00:29:56 17° WSW
SeaSat 1 2.7 00:32:01 59° WNW 00:32:01 59° WNW 00:36:23 10° NNW
Cosmos 1048 Rocket 4.4 00:29:19 10° NNW 00:34:16 55° W 00:34:16 55° W
BREEZE-M DEB (TANK) 4.0 00:28:39 10° WNW 00:36:01 37° N 00:37:12 29° NE
Meteor 1-26 Rocket 4.4 00:32:46 10° NNW 00:38:16 58° W 00:38:26 57° WSW
Lacrosse 4 Rocket 2.5 00:34:13 10° NW 00:37:19 41° NW 00:37:19 41° NW
Cosmos 2184 Rocket 3.9 00:38:04 69° SW 00:38:46 78° W 00:45:00 10° N
Cosmos 1603 3.9 00:37:21 10° NNW 00:42:59 60° ENE 00:43:25 58° E
NOSS 2-3 (C) 4.4 00:44:39 52° WNW 00:45:12 55° NW 00:50:45 10° NNE
ASTEX 1 3.6 00:45:51 10° N 00:50:14 68° NNW 00:50:14 68° NNW
Cosmos 1892 4.3 00:54:41 33° N 00:54:41 33° N 00:56:54 10° N
Landsat 5 4.3 00:55:48 54° NNW 00:55:48 54° NNW 00:59:22 10° NNW
Cosmos 1733 Rocket 3.8 00:55:52 53° N 00:55:52 53° N 00:59:19 10° N
Cosmos 2341 Rocket 4.1 00:58:10 58° ESE 00:58:42 60° E 01:04:58 10° NNE
Cosmos 2237 Rocket 4.2 00:56:45 10° WNW 00:59:39 15° W 00:59:39 15° W
ALOS 2 3.8 01:03:09 36° WNW 01:03:09 36° WNW 01:06:12 10° NNW
Cosmos 158 Rocket 4.4 00:57:09 10° NNW 01:01:41 55° WNW 01:01:41 55° WNW
H-2A R/B 3.7 00:59:47 10° N 01:03:08 38° NW 01:03:08 38° NW
Cosmos 44 3.6 01:05:25 72° NE 01:05:25 72° NE 01:10:21 10° NNE
NOSS 3-4 (A) 4.1 01:05:20 43° ESE 01:05:20 43° ESE 01:11:05 10° NE
NOSS 3-4 (C) 4.1 01:05:26 43° ESE 01:05:26 43° ESE 01:11:10 10° NE
Meteor 2-3 Rocket 4.5 01:06:02 41° W 01:06:40 43° WNW 01:12:07 10° N
Cosmos 962 Rocket 4.4 01:07:24 68° ESE 01:07:45 69° E 01:13:49 10° NNE
Meteor 1-10 Rocket 4.2 01:08:01 10° NNW 01:13:58 79° W 01:14:07 78° WSW
SL-8 Rocket 4.5 01:14:50 45° ESE 01:15:31 47° E 01:21:32 10° NNE
COSMOS 2455 4.1 01:11:33 10° NW 01:15:49 27° W 01:15:49 27° W
Cosmos 1825 4.0 01:20:10 27° NE 01:20:10 27° NE 01:22:13 10° NNE
MOS 1-B Rocket 3.7 01:22:20 79° SW 01:22:28 80° WSW 01:28:05 10° NNW
Helios 1A Rocket 4.2 01:21:28 10° N 01:24:34 37° NW 01:24:34 37° NW
Cosmos 1782 4.3 01:22:58 10° NNW 01:25:20 33° NNW 01:25:20 33° NNW
Okean 2 Rocket 4.1 01:28:42 41° ENE 01:28:42 41° ENE 01:32:12 10° NNE
Cosmos 1782 Rocket 4.4 01:32:19 47° NE 01:32:19 47° NE 01:35:39 10° NNE
Cosmos 2366 rocket 4.3 01:37:41 47° ESE 01:38:30 51° E 01:44:27 10° NNE
Cosmos 2263 Rocket 2.2 01:42:34 66° ESE 01:42:34 66° ESE 01:48:12 10° NNE
CZ-2C R/B 3.1 01:43:44 81° S 01:44:04 88° W 01:49:45 10° NNW
Nadezhda 3 Rocket 4.3 01:39:49 10° NNW 01:45:47 50° W 01:46:10 49° WSW
RESURS DK-1 3.8 01:48:10 31° ENE 01:48:10 31° ENE 01:50:47 10° NE
Cosmos 921 Rocket 4.4 01:51:53 30° NW 01:51:53 30° NW 01:55:00 10° N
SL-16 R/B 4.5 01:50:33 10° WNW 01:51:28 11° W 01:51:28 11° W
ATLAS 3B R/B 4.3 01:48:16 10° WNW 01:51:43 18° W 01:51:43 18° W
Cosmos 1975 Rocket 3.6 01:51:05 10° N 01:54:36 56° N 01:54:36 56° N
Cosmos 1867 4.0 01:53:38 10° NNW 01:59:03 58° ENE 02:00:31 43° ESE
Cosmos 909 Rocket 4.3 01:58:20 51° SE 01:59:11 55° ESE 02:06:03 10° NE
USA 238 DEB 4.3 01:54:28 10° NW 02:00:38 40° WSW 02:00:38 40° WSW
USA 238 4.3 01:54:34 10° NW 02:00:45 40° WSW 02:00:45 40° WSW
Cosmos 864 Rocket 4.4 02:00:37 63° SSE 02:01:33 74° E 02:07:42 10° N
Cosmos 1727 Rocket 4.2 01:55:37 10° N 02:01:48 63° E 02:03:16 49° SE
Cosmos 1242 Rocket 4.4 01:58:51 10° NNE 02:01:06 27° NE 02:01:06 27° NE
Cosmos 1624 Rocket 4.3 02:02:31 54° ESE 02:02:31 54° ESE 02:07:38 10° NNE
Iridium 4 Rocket 4.1 02:01:05 10° NNE 02:05:36 42° E 02:06:08 41° ESE
Cosmos 1607 4.2 02:01:02 10° NW 02:06:28 48° W 02:06:28 48° W
CZ-2C R/B 3.6 02:04:09 10° N 02:08:46 32° WNW 02:09:16 32° W
Meteor 1-27 Rocket 4.3 02:04:07 10° NNW 02:09:36 43° W 02:09:36 43° W
CZ-4C R/B 2.8 02:04:36 10° NW 02:11:47 69° WSW 02:13:44 52° S
PSLV R/B 3.9 02:08:56 10° NNE 02:12:33 57° ENE 02:12:33 57° ENE
Cosmos 1943 3.4 02:11:33 10° NNW 02:16:47 53° W 02:16:47 53° W
Meteor 1-14 Rocket 4.2 02:17:11 66° S 02:18:07 85° E 02:24:02 10° N
USA 234 3.8 02:13:07 10° ESE 02:19:28 57° NE 02:25:51 10° NW
Cosmos 2151 Rocket 3.6 02:26:57 79° N 02:26:57 79° N 02:31:10 10° N
CENTAUR R/B 4.3 02:22:02 10° NNW 02:29:15 39° NE 02:36:51 10° ESE
NOSS 3-2 (C) 3.9 02:27:23 10° NW 02:34:57 71° WSW 02:38:30 37° SSE
Okean 1 Rocket 4.0 02:36:35 36° ESE 02:37:13 38° E 02:41:21 10° NNE
Meteor 1-18 Rocket 4.2 02:40:45 10° N 02:46:26 87° E 02:48:07 48° SSE
NPP 3.6 02:45:01 10° NNE 02:50:27 80° ESE 02:51:45 53° S
Gbstr 26 Del rocket 3.4 02:51:08 44° ESE 02:51:08 44° ESE 02:54:12 10° ENE
Cosmos 1190 Rocket 3.9 02:47:23 10° NNW 02:52:38 88° WSW 02:53:57 52° SSE
ERS-2 2.4 02:51:06 10° NNE 02:54:39 65° E 02:54:39 65° E
SL-16 R/B 4.2 02:49:42 10° SE 02:55:02 31° ENE 03:00:24 10° N
GP-B 3.3 02:52:58 10° N 02:57:24 68° E 02:58:13 54° SE
BREEZE-M TANK 2.7 02:54:38 10° WNW 02:57:44 44° NNE 03:00:15 10° E
NOSS 3-2 (A) 4.4 02:51:15 10° NW 02:58:21 43° WSW 03:00:05 38° SW
Cosmos 1812 2.6 02:56:00 10° N 02:59:55 84° E 02:59:55 84° E
Cosmos 2056 Rocket 4.0 02:59:00 42° WSW 03:00:04 48° WNW 03:05:09 10° N
NOSS 2-2 (D) 4.4 03:03:32 34° SE 03:04:02 35° ESE 03:08:09 10° NE
Cosmos 1821 Rocket 4.1 03:02:06 35° S 03:04:58 75° E 03:11:22 10° N
IRAS Rocket 4.2 03:00:14 10° N 03:05:45 73° WNW 03:07:25 46° SW
Meteor 1-20 Rocket 4.3 03:05:47 46° SSW 03:07:35 74° W 03:13:23 10° N
Cosmos 407 Rocket 3.3 03:03:06 10° NNW 03:08:16 80° WSW 03:10:00 43° S
CZ-2D R/B 3.6 03:05:59 10° NE 03:10:46 30° E 03:14:23 15° SSE
Meteor 1-11 Rocket 4.3 03:08:06 28° SSE 03:11:08 56° E 03:16:58 10° NNE
SL-27 R/B 2.4 03:08:09 10° NNW 03:11:50 90° NNE 03:11:51 89° SE
Spot 4 Rocket 4.3 03:07:23 10° NNE 03:12:30 61° E 03:14:34 35° SSE
Okean 1 3.1 03:10:56 10° NNW 03:14:55 73° W 03:15:12 69° SW
Cosmos 676 Rocket 3.9 03:11:08 10° NNW 03:16:20 89° ENE 03:18:59 30° SSE
Meteor 1-13 Rocket 4.4 03:11:43 10° N 03:17:25 71° E 03:21:23 21° SSE
NOSS 2-2 (C) 3.9 03:17:34 44° SSE 03:18:22 52° ESE 03:22:48 10° NE
Abrixas rocket 4.3 03:22:23 19° NW 03:23:47 24° NNW 03:26:37 10° NE
Cosmos 1844 Rocket 2.6 03:21:38 40° SSW 03:23:47 83° WNW 03:29:30 10° NNE
Cosmos 1809 Rocket 4.4 03:21:20 36° SSW 03:23:59 78° W 03:30:10 10° N
RESURS DK-1 4.4 03:24:05 15° WNW 03:25:07 17° NW 03:27:51 10° NNW
USA 161 1.9 03:25:43 57° ENE 03:25:44 57° ENE 03:28:36 10° N
Cosmos 2263 Rocket 4.1 03:24:15 14° W 03:27:00 19° NW 03:30:55 10° N
IRS-1C 4.2 03:24:34 10° N 03:29:52 66° WNW 03:31:59 36° SW
Cosmos 1844 3.7 03:29:25 35° SSW 03:31:57 85° ESE 03:37:44 10° NNE
IRS-1D 3.9 03:27:44 10° NNE 03:32:45 59° E 03:35:33 25° S
UNK 3.9 03:28:10 28° SW 03:32:54 65° SE 03:36:27 10° ENE
Cosmos 1300 Rocket 4.1 03:32:56 36° WSW 03:33:39 39° WNW 03:37:46 10° N
Meteor 2-16 Rocket 4.4 03:35:07 27° S 03:38:42 89° W 03:44:53 10° N
Cosmos 1954 Rocket 3.9 03:38:18 10° NNW 03:43:26 67° WSW 03:46:48 22° S
NOSS 2-2 (E) 3.5 03:42:29 39° SW 03:44:01 77° NW 03:48:50 10° NNE
COSMOS 2406 3.7 03:38:48 10° NW 03:44:10 41° WSW 03:46:27 29° SSW
Cosmos 1315 Rocket 4.4 03:41:28 13° SSE 03:44:32 31° E 03:48:08 10° NNE
UNK 4.1 03:41:07 11° SSE 03:45:32 64° ENE 03:50:08 10° N
Cosmos 2278 Rocket 2.3 03:42:34 27° S 03:45:45 74° ESE 03:51:26 10° NNE
Cosmos 1602 3.8 03:45:13 43° SW 03:46:14 60° W 03:50:02 10° N
ATLAS 5 CENTAUR R/B 3.5 03:43:42 10° NNW 03:49:27 46° NE 03:55:34 10° ESE
SL-08 R/B 4.4 03:50:28 26° WSW 03:51:21 28° W 03:55:33 10° NW
Cosmos 1892 Rocket 3.9 03:47:18 10° N 03:51:38 65° E 03:55:36 12° SSE
Cosmos 614 Rocket 4.4 03:49:25 10° NNW 03:54:34 63° ENE 03:59:37 10° SSE
Resurs 1-4 Rocket 2.2 03:49:41 10° NNE 03:55:02 79° ESE 03:58:48 20° S
Cosmos 1356 3.5 03:55:43 31° S 03:57:19 80° E 04:00:53 10° NNE
Okean 2 4.0 03:54:17 10° N 03:58:19 56° E 04:02:21 10° SSE
Cosmos 1633 2.5 03:57:34 35° SSW 03:58:57 72° W 04:02:35 10° N
USA 234 3.6 03:56:33 10° SSE 04:02:34 39° SW 04:08:38 10° WNW
Cosmos 2082 Rocket 3.9 04:00:25 10° N 04:05:38 35° ENE 04:10:49 10° SE
ARIANE 5 R/B 2.6 04:00:54 10° N 04:05:48 59° WNW 04:08:54 22° SW
BREEZE-M DEB (TANK) 2.6 04:08:16 27° S 04:09:13 35° SE 04:11:52 10° ENE
COSMOS 2487 2.5 04:06:53 10° NNW 04:10:28 60° WSW 04:13:13 16° S
Cosmos 1536 3.3 04:09:08 26° SW 04:11:00 43° W 04:14:54 10° N
Meteor 2-4 Rocket 3.5 04:06:13 10° NNW 04:11:37 76° W 04:16:56 10° S
UNKNOWN OBJECT B 2.8 04:12:22 10° N 04:16:29 85° WNW 04:19:34 17° SSW
CZ-2D R/B 3.5 04:14:51 10° NNE 04:18:52 72° ESE 04:22:29 13° S
Cosmos 1447 Rocket 4.4 04:12:49 10° N 04:18:59 77° W 04:25:05 10° S
Timation 2 Rocket 4.0 04:13:49 10° NNW 04:20:00 82° ENE 04:25:58 10° SSE
CENTAUR R/B 3.2 04:12:35 10° NW 04:20:17 55° WSW 04:28:18 10° S
Cosmos 1461 3.5 04:17:34 21° SW 04:20:36 54° NW 04:25:09 10° NNE
Okean O Rocket 2.0 04:20:36 10° NNE 04:24:55 62° E 04:29:13 10° S
PSLV R/B 4.4 04:20:48 10° NNE 04:24:55 61° E 04:28:59 10° S
Cosmos 2061 Rocket 4.2 04:20:31 10° S 04:26:48 77° E 04:33:12 10° N
Cosmos 1331 Rocket 4.3 04:27:24 10° S 04:32:35 66° ESE 04:37:45 10° NNE
EO 1 Del DPAF 4.2 04:32:45 16° SSW 04:35:15 29° W 04:38:41 10° NW
Gbstr 26 Del rocket 4.4 04:34:13 10° W 04:37:28 25° NNW 04:40:37 10° NNE
Cosmos 1140 Rocket 4.2 04:32:59 10° NW 04:37:28 31° W 04:41:55 10° SSW
SL-16 R/B 3.0 04:32:40 10° SSW 04:38:28 40° W 04:44:19 10° NNW
Cosmos 1455 Rocket 3.5 04:36:12 14° SSW 04:39:52 46° W 04:44:10 10° N
CZ-2C R/B 3.8 04:36:08 10° SSE 04:40:52 86° WSW 04:45:41 10° NNW
Cosmos 1626 Rocket 3.7 04:36:36 10° N 04:40:59 80° E 04:45:22 10° S
Cosmos 1025 Rocket 4.5 04:39:26 10° NW 04:42:36 20° W 04:45:06 13° SW
Cosmos 1833 Rocket 3.3 04:44:19 10° NNW 04:49:53 62° ENE 04:55:26 10° SE
CZ-2D R/B 3.1 04:45:56 10° N 04:50:46 34° WNW 04:55:38 10° SW
USA 129 2.5 04:49:23 11° SSW 04:51:11 31° W 04:53:07 10° NNW
Cosmos 1400 Rocket 4.4 04:51:39 11° WSW 04:54:18 19° WNW 04:57:11 10° NNW
SME Rocket 4.3 04:56:10 10° SW 04:58:58 20° W 05:01:54 10° NW
Cosmos 2016 Rocket 4.0 04:54:33 10° S 05:00:52 80° W 05:07:10 10° N
Cosmos 1302 Rocket 4.1 05:04:28 10° SSW 05:09:40 84° ESE 05:14:55 10° NNE
